N0MR Weather Reports


time (UTC)temp
C
wind
direction
speed
KPH
gust
KPH
rain 1hr
cm
rain 24hr
cm
rain mn
cm
humidity
%
barometer
mb
20260504024157 11 232 0.0 4.8 0.00 0.03 0.00 42 998.9
20260504023157 11 232 0.0 0.0 0.00 0.03 0.03 43 999.1
20260504022157 11 232 0.0 0.0 0.00 0.03 0.03 43 999.1
20260504021157 11 232 0.0 0.0 0.00 0.03 0.00 41 999.5
20260504020157 11 232 0.0 0.0 0.00 0.03 0.00 41 999.5
20260504015158 12 232 0.0 0.0 0.00 0.03 0.00 39 999.8
20260504014158 12 232 0.0 0.0 0.00 0.03 0.00 39 999.8
20260504013157 13 232 0.0 6.4 0.00 0.03 0.03 36 1000.2
20260504012158 14 239 0.0 12.9 0.00 0.03 0.03 34 1000.5
20260504011157 14 239 0.0 12.9 0.00 0.03 0.03 34 1000.5
20260504010157 15 281 1.6 9.7 0.00 0.03 0.00 33 1000.8
20260504005157 15 281 1.6 9.7 0.00 0.03 0.00 33 1000.8
20260504004157 15 194 1.6 11.3 0.00 0.03 0.03 33 1001.0
20260503222159 17 242 6.4 16.1 0.00 0.03 0.03 28 1001.7
20260503215159 17 246 3.2 17.7 0.00 0.03 0.00 28 1001.8
20260503214201 17 246 3.2 17.7 0.00 0.03 0.00 28 1001.8
20260503205159 17 109 9.7 20.9 0.00 0.03 0.00 27 1002.3
20260503204158 17 109 9.7 20.9 0.00 0.03 0.00 27 1002.3
20260503203159 17 233 11.3 16.1 0.00 0.03 0.03 25 1002.4
20260503202159 17 233 11.3 16.1 0.00 0.03 0.03 25 1002.4
20260503201159 16 33 6.4 19.3 0.00 0.03 0.00 24 1002.7
20260503200200 16 33 6.4 19.3 0.00 0.03 0.00 24 1002.7
20260503180159 16 176 3.2 25.7 0.00 0.03 0.00 27 1003.6
20260503175158 16 176 3.2 25.7 0.00 0.03 0.00 27 1003.6
20260503174159 15 317 6.4 20.9 0.00 0.03 0.03 26 1003.8
20260503173159 15 317 6.4 20.9 0.00 0.03 0.03 26 1003.8
20260503172158 15 241 3.2 22.5 0.00 0.03 0.03 25 1003.8
20260503171159 15 241 3.2 22.5 0.00 0.03 0.03 25 1003.8
20260503170158 16 284 6.4 17.7 0.00 0.03 0.00 24 1003.8